Regional Weather Roundup
Issued by NWS

Home | Current Version | Previous Version | Graphics & Text | Print | Product List | Glossary On
Versions: 1 2 3 4 5 6 7 8 9 10 11 12 13 14 15 16 17 18 19 20 21 22 23 24 25 26 27 28 29 30 31 32 33 34 35 36 37 38 39 40 41 42 43 44 45 46 47 48 49 50
000
ASUS43 KFSD 012102
RWRSD

WEATHER ROUNDUP FOR SOUTH DAKOTA
NATIONAL WEATHER SERVICE SIOUX FALLS SD
400 PM CDT FRI AUG 01 2014

NOTE: "FAIR" INDICATES FEW OR NO CLOUDS BELOW 12,000 FEET WITH NO
SIGNIFICANT WEATHER AND/OR OBSTRUCTIONS TO VISIBILITY.


SDZ001>005-009-010-012>017-012200-
NORTHWEST AND NORTH CENTRAL SOUTH DAKOTA

CITY           SKY/WX    TMP DP  RH WIND       PRES   REMARKS
BUFFALO          N/A     90  50  25 NE9       30.00F
FAITH            N/A     93  45  19 VRB5      30.02F
MOBRIDGE       SUNNY     86  59  39 SE12      30.01F
$$

SDZ012>016-024>037-041>051-057-063-072>074-012200-
SOUTHWEST AND SOUTH CENTRAL SOUTH DAKOTA

CITY           SKY/WX    TMP DP  RH WIND       PRES   REMARKS
RAPID CTY ARPT PTSUNNY   85  51  31 S16G23    30.08S
PIERRE         SUNNY     92  58  31 SE16      30.00F
CUSTER         PTSUNNY   79  44  28 E12       30.24F
ELLSWORTH AFB  PTSUNNY   89  46  23 W12       30.07S
PHILIP         SUNNY     98  44  15 W10       29.99F
PINE RIDGE     MOSUNNY   91  46  21 CALM      30.09F
WINNER         FAIR      92  51  24 SE6       30.05F
$$

SDZ004>011-016>023-039-040-012200-
NORTHEAST SOUTH DAKOTA

CITY           SKY/WX    TMP DP  RH WIND       PRES   REMARKS
ABERDEEN       SUNNY     84  53  34 CALM      30.07F
WATERTOWN      PTSUNNY   82  54  37 VRB3      30.10S
SISSETON         N/A     84  58  40 VRB3      30.07S
$$

SDZ017-020-022-023-036>040-048>070-012200-
SOUTHEAST SOUTH DAKOTA

CITY           SKY/WX    TMP DP  RH WIND       PRES   REMARKS
SIOUX FALLS    MOSUNNY   81  56  42 CALM      30.09F
HURON          MOSUNNY   85  57  38 CALM      30.06F
CHAMBERLAIN    SUNNY     88  57  34 E7        30.05F
MITCHELL       SUNNY     84  58  40 SE5       30.08F
YANKTON        SUNNY     81  57  44 E7        30.09F
$$

ABBREVIATIONS USED IN REMARKS
   TC - TEMPERATURE IN CELSIUS
  WCI - WIND CHILL INDEX
   HX - HEAT INDEX
  VSB - VISIBILITY




USA.gov is the U.S. government's official web portal to all federal, state and local government web resources and services.